Regional Weather Roundup
Issued by NWS

Home | Current Version | Previous Version | Text Only | Print | Product List | Glossary On
Versions: 1 2 3 4 5 6 7 8 9 10 11 12 13 14 15 16 17 18 19 20 21 22 23 24 25 26 27 28 29 30 31 32 33 34 35 36 37 38 39 40 41 42 43 44 45 46 47 48 49 50
000
ASUS45 KBOU 281607
RWRCO

WEATHER ROUNDUP FOR COLORADO
NATIONAL WEATHER SERVICE DENVER/BOULDER CO
900 AM MST WED JAN 28 2015

NOTE: "FAIR" INDICATES FEW OR NO CLOUDS BELOW 12000 FEET WITH NO
SIGNIFICANT WEATHER AND/OR OBSTRUCTIONS TO VISIBILITY.

COZ001>005-013-030-031-281700-
...NORTHWEST COLORADO...

CITY           SKY/WX    TMP DP  RH WIND       PRES   REMARKS
CRAIG          CLOUDY    31  30  96 CALM      30.25R
HAYDEN         MOSUNNY   36  30  80 CALM      30.24R
MEEKER         MOSUNNY   35  28  75 N6        30.27R WCI  30
MOUNT WERNER   NOT AVBL
STEAMBOAT SPGS CLOUDY    33  29  86 CALM      30.24R
WALDEN         CLOUDY    34  27  75 SW15G24   30.19S WCI  24
$$

COZ006>008-011-281700-
...WEST CENTRAL VALLEYS...

CITY           SKY/WX    TMP DP  RH WIND       PRES   REMARKS
GRAND JUNCTION SUNNY     30  27  88 CALM      30.29R
MONTROSE       SUNNY     37  29  72 NE3       30.30S
EAGLE          MOSUNNY   28  27  93 CALM      30.28S
RIFLE          MOSUNNY   29  26  89 CALM      30.30R
DELTA          SUNNY     32  26  80 CALM      30.30R
NUCLA          MOSUNNY   37  32  81 E5        30.33R
$$

COZ017>023-064>068-281700-
...SOUTHWEST COLORADO...

CITY           SKY/WX    TMP DP  RH WIND       PRES   REMARKS
DURANGO        SUNNY     32  27  81 N3        30.30R
CORTEZ         MOSUNNY   33  30  88 E3        30.31R
PAGOSA SPRINGS SUNNY     33  28  83 CALM      30.31R
TELLURIDE      SUNNY    N/A N/A N/A CALM      30.34R
WOLF CREEK PAS NOT AVBL
$$

COZ009-010-012-014-032>034-037-058>063-281700-
...CENTRAL COLORADO...

CITY           SKY/WX    TMP DP  RH WIND       PRES   REMARKS
ASPEN          PTSUNNY   31  22  69 VRB3      30.26R
BUENA VISTA    SUNNY     41  18  40 W24G36    30.20R
COPPER MTN     CLOUDY    23  16  74 W5        30.27R WCI  17
BERTHOUD PASS  PTSUNNY   16  10  79 NW41G49   30.17R WCI  -7
COTTONWOOD PAS CLOUDY    36  19  51 N7G17     30.23S
GUNNISON       MOSUNNY   10   7  85 CALM      30.33S
KREMMLING      MOSUNNY   30  21  69 N3        30.24S
LEADVILLE      MOSUNNY   29  15  56 NW12      30.24S WCI  19
MONARCH PASS   CLOUDY    21  19  93 MISG      30.36S
SALIDA         SUNNY     46  22  39 SW20G25   30.27S
SUNLIGHT       PTSUNNY   27  23  86 CALM        N/A
WILKERSON PASS MOSUNNY   27  12  54 W10G21    30.21R WCI  17
$$

COZ069>075-281700-
...SAN LUIS VALLEY/SANGRE DE CRISTO MOUNTAINS...

CITY           SKY/WX    TMP DP  RH WIND       PRES   REMARKS
ALAMOSA        MOSUNNY   31  22  69 SW5       30.26R WCI  26
LA VETA PASS   NOT AVBL
SAGUACHE       CLOUDY    34  27  75 SE5       30.27R WCI  30
$$

COZ035-036-038>040-281700-
...NORTHERN COLORADO FRONT RANGE...

CITY           SKY/WX    TMP DP  RH WIND       PRES   REMARKS
DENVER INTL AP MOSUNNY   54  20  26 W29G39    30.05R
DMNS CITY PARK   N/A     54  17  23 NW12G29   30.07S
AURORA         MOSUNNY   51  19  27 W22G30    30.08R
FRONT RANGE AP MOSUNNY   54  23  30 W33G39    30.06R
ERIE MUNI ARPT MOSUNNY   54  19  25 W20G26    30.07R
BOULDER MUN AP MOSUNNY   54  21  28 NW12G40   30.06R
CENTENNIAL     MOSUNNY   49  23  36 CALM      30.09R
BROOMFIELD     MOSUNNY   54  19  26 W15G21    30.07R
FORT COLLINS   SUNNY     54  23  30 NW13      30.07R
LONGMONT       SUNNY     58  20  23 W12       30.06R
$$

COZ041-046-047-076>085-087-088-281700-
...PIKES PEAK/PALMER DIVIDE AND SOUTHERN FOOTHILLS...

CITY           SKY/WX    TMP DP  RH WIND       PRES   REMARKS
COLO. SPRINGS  MOSUNNY   52  19  27 NW18G28   30.08S
A. F. ACADEMY  SUNNY     47  17  29 N8        30.10S
ELLICOTT       SUNNY    N/A N/A N/A NW9G20    30.07S
FALCON         SUNNY     48  16  27 W23G31    30.10S
FORT CARSON    SUNNY     49  25  38 N2        30.06R
LIMON          MOSUNNY   47  26  44 W10       30.04S
MONUMENT HILL  SUNNY     45  18  33 W13       30.10R
TRINIDAD       MOSUNNY   47  29  49 S7        30.09S
$$

COZ042>045-048>051-090-091-281700-
...NORTHEAST COLORADO...

CITY           SKY/WX    TMP DP  RH WIND       PRES   REMARKS
GREELEY ARPT   SUNNY     52  28  40 N22       30.03S
AKRON          PTSUNNY   46  32  58 W14       30.00R
BURLINGTON     CLOUDY    45  31  58 NW13      29.99S
WRAY           PTSUNNY   44  34  67 W9        29.96S
STERLING       PTSUNNY   55  36  47 NW24G37   29.97S
HOLYOKE        PTSUNNY   59  34  38 NW21G28   29.95S
FORT MORGAN    PTSUNNY   50  29  44 W21G29    30.01S
$$

COZ086-089-092>099-281700-
...SOUTHEAST COLORADO...

CITY           SKY/WX    TMP DP  RH WIND       PRES   REMARKS
PUEBLO         SUNNY     58  21  24 W17       30.05R
LA JUNTA       CLOUDY    50  30  46 W8        30.03R
LAMAR          CLOUDY    46  33  60 SW8       30.01R
SPRINGFIELD      N/A     60  28  29 NW17      30.02R
$$


USA.gov is the U.S. government's official web portal to all federal, state and local government web resources and services.